Wayne, NE

8:51 PM CDT on June 27, 2017 (GMT -0500)
Wayne Municipal

Weather History for KLCG - July, 2013

Change the Weather History Date:

Saturday, July 6, 2013

  Actual Average (KOFK) Record (KOFK)
Temperature  
Mean Temperature 79 °F -  
Max Temperature 90 °F 86 °F 106 °F (1937)
Min Temperature 68 °F 63 °F 51 °F (2006)
Cooling Degree Days 14    
Growing Degree Days 29 (Base 50)    
Moisture  
Dew Point 62 °F    
Average Humidity 57    
Maximum Humidity 71    
Minimum Humidity 42    
Precipitation  
Precipitation 0.00 in - - ()
Sea Level Pressure  
Sea Level Pressure 29.82 in    
Wind  
Wind Speed 13 mph (South)    
Max Wind Speed 21 mph    
Max Gust Speed 28 mph    
Visibility 10 miles    
Events      
Averages and records for this station are not official NWS values.
T = Trace of Precipitation, MM = Missing Value Source: NWS Daily Summary

Daily Weather History Graph

Daily Weather History Graph

Search for Another Location

Airport or City:

Trip Planner

Search our weather history database for the weather conditions in past years. The results will help you decide how hot, cold, wet, or windy it might be!

Date:

Astronomy

Jul. 06, 2013 Rise Set
Actual Time 5:58 AM CDT 9:06 PM CDT
Civil Twilight 5:24 AM CDT 9:40 PM CDT
Nautical Twilight 4:40 AM CDT 10:24 PM CDT
Astronomical Twilight 3:47 AM CDT 11:16 PM CDT
Moon 4:46 AM CDT (7/6) 7:48 PM CDT (7/6)
Length of Visible Light 16h 16m
Length of Day
15h 08m
Waning Crescent, 2% of the Moon is Illuminated
Jul 6
Waning Crescent
Jul 8
New
Jul 15
First Quarter
Jul 22
Full
Jul 29
Last Quarter

Hourly Weather History & Observations

Time (CDT) Temp. Heat Index Dew Point Humidity Pressure Visibility Wind Dir Wind Speed Gust Speed Precip Events Conditions
12:15 AM 74.8 °F - 57.7 °F 55% 29.83 in 10.0 mi South 15.0 mph - N/A   Clear
12:35 AM 74.5 °F - 57.7 °F 56% 29.83 in 10.0 mi SSE 13.8 mph - N/A   Clear
12:55 AM 74.3 °F - 58.1 °F 57% 29.83 in 10.0 mi SSE 13.8 mph - N/A   Clear
1:15 AM 74.3 °F - 58.6 °F 58% 29.84 in 10.0 mi South 12.7 mph - N/A   Clear
1:35 AM 73.8 °F - 59.0 °F 60% 29.84 in 10.0 mi South 9.2 mph - N/A   Clear
1:55 AM 73.4 °F - 59.0 °F 61% 29.84 in 10.0 mi South 9.2 mph - N/A   Clear
2:15 AM 73.0 °F - 59.0 °F 61% 29.84 in 10.0 mi South 9.2 mph - N/A   Mostly Cloudy
2:35 AM 73.4 °F - 59.0 °F 61% 29.84 in 10.0 mi South 12.7 mph - N/A   Mostly Cloudy
2:55 AM 72.7 °F - 59.2 °F 62% 29.84 in 10.0 mi SSE 11.5 mph - N/A   Clear
3:15 AM 72.5 °F - 59.4 °F 63% 29.83 in 10.0 mi South 11.5 mph - N/A   Clear
3:35 AM 72.1 °F - 59.2 °F 64% 29.82 in 10.0 mi South 11.5 mph - N/A   Clear
3:55 AM 72.5 °F - 59.0 °F 62% 29.82 in 10.0 mi South 17.3 mph 21.9 mph N/A   Clear
4:15 AM 72.3 °F - 59.0 °F 63% 29.82 in 10.0 mi South 12.7 mph - N/A   Clear
4:35 AM 72.0 °F - 59.0 °F 64% 29.82 in 10.0 mi South 13.8 mph 19.6 mph N/A   Clear
4:55 AM 71.1 °F - 59.0 °F 66% 29.82 in 10.0 mi South 12.7 mph - N/A   Clear
5:15 AM 70.7 °F - 59.0 °F 66% 29.83 in 10.0 mi South 10.4 mph - N/A   Clear
5:35 AM 70.0 °F - 59.0 °F 68% 29.83 in 10.0 mi South 9.2 mph - N/A   Clear
5:55 AM 70.0 °F - 58.6 °F 67% 29.83 in 10.0 mi South 9.2 mph - N/A   Clear
6:15 AM 69.8 °F - 58.6 °F 68% 29.83 in 10.0 mi South 6.9 mph - N/A   Clear
6:35 AM 68.9 °F - 58.6 °F 70% 29.84 in 10.0 mi South 5.8 mph - N/A   Clear
6:55 AM 68.9 °F - 59.0 °F 71% 29.84 in 10.0 mi South 8.1 mph - N/A   Clear
7:15 AM 70.0 °F - 59.2 °F 68% 29.83 in 10.0 mi SSE 9.2 mph - N/A   Clear
7:35 AM 71.4 °F - 59.2 °F 65% 29.83 in 10.0 mi SSE 12.7 mph - N/A   Clear
7:55 AM 72.0 °F - 59.9 °F 66% 29.83 in 10.0 mi South 12.7 mph 17.3 mph N/A   Clear
8:15 AM 72.9 °F - 59.9 °F 64% 29.83 in 10.0 mi South 12.7 mph - N/A   Clear
8:35 AM 74.3 °F - 60.6 °F 62% 29.83 in 10.0 mi South 15.0 mph 19.6 mph N/A   Clear
8:55 AM 75.2 °F - 60.8 °F 61% 29.83 in 10.0 mi South 15.0 mph 19.6 mph N/A   Clear
9:15 AM 75.6 °F - 61.0 °F 60% 29.83 in 10.0 mi South 15.0 mph 19.6 mph N/A   Clear
9:35 AM 77.2 °F - 62.4 °F 60% 29.82 in 10.0 mi South 13.8 mph - N/A   Clear
9:55 AM 78.1 °F - 62.2 °F 58% 29.82 in 10.0 mi South 16.1 mph - N/A   Clear
10:15 AM 80.2 °F 81.6 °F 63.1 °F 56% 29.82 in 10.0 mi South 15.0 mph 19.6 mph N/A   Clear
10:35 AM 79.0 °F - 63.0 °F 58% 29.82 in 10.0 mi South 11.5 mph 19.6 mph N/A   Clear
10:55 AM 80.6 °F 82.2 °F 63.9 °F 57% 29.82 in 10.0 mi South 12.7 mph 17.3 mph N/A   Clear
11:15 AM 82.0 °F 83.1 °F 62.6 °F 52% 29.82 in 10.0 mi South 16.1 mph 19.6 mph N/A   Clear
11:35 AM 81.5 °F 82.5 °F 62.4 °F 52% 29.82 in 10.0 mi South 15.0 mph 20.7 mph N/A   Clear
11:55 AM 82.2 °F 83.3 °F 63.1 °F 52% 29.82 in 10.0 mi South 16.1 mph 20.7 mph N/A   Clear
12:15 PM 84.2 °F 85.4 °F 63.9 °F 50% 29.82 in 10.0 mi South 13.8 mph 19.6 mph N/A   Clear
12:35 PM 86.0 °F 87.1 °F 63.7 °F 47% 29.81 in 10.0 mi SSE 15.0 mph 19.6 mph N/A   Clear
12:55 PM 85.8 °F 86.8 °F 63.7 °F 47% 29.81 in 10.0 mi South 18.4 mph 23.0 mph N/A   Clear
1:15 PM 86.5 °F 87.6 °F 63.7 °F 46% 29.80 in 10.0 mi South 15.0 mph 24.2 mph N/A   Clear
1:35 PM 87.6 °F 88.5 °F 63.5 °F 44% 29.80 in 10.0 mi South 15.0 mph 21.9 mph N/A   Clear
1:55 PM 88.2 °F 89.3 °F 64.0 °F 44% 29.81 in 10.0 mi SSE 17.3 mph 20.7 mph N/A   Clear
2:15 PM 88.2 °F 89.6 °F 64.2 °F 45% 29.80 in 10.0 mi South 17.3 mph 21.9 mph N/A   Clear
2:35 PM 89.4 °F 90.8 °F 64.2 °F 43% 29.80 in 10.0 mi South 18.4 mph 25.3 mph N/A   Clear
2:55 PM 89.8 °F 91.0 °F 64.0 °F 42% 29.80 in 10.0 mi South 18.4 mph - N/A   Clear
3:15 PM 88.9 °F 90.0 °F 63.9 °F 43% 29.79 in 10.0 mi SSE 20.7 mph 27.6 mph N/A   Clear
3:35 PM 90.1 °F 92.0 °F 64.6 °F 43% 29.79 in 10.0 mi South 19.6 mph 26.5 mph N/A   Clear
3:55 PM 88.5 °F 89.5 °F 63.7 °F 43% 29.79 in 10.0 mi SSE 18.4 mph 23.0 mph N/A   Clear
4:15 PM 89.8 °F 91.0 °F 64.0 °F 42% 29.79 in 10.0 mi SSE 17.3 mph 21.9 mph N/A   Clear
4:35 PM 90.1 °F 91.6 °F 63.9 °F 42% 29.79 in 10.0 mi South 16.1 mph 21.9 mph N/A   Clear
4:55 PM 88.7 °F 89.8 °F 63.3 °F 43% 29.78 in 10.0 mi South 17.3 mph 23.0 mph N/A   Clear
5:15 PM 87.4 °F 88.8 °F 64.0 °F 46% 29.78 in 10.0 mi South 17.3 mph 24.2 mph N/A   Clear
5:35 PM 87.3 °F 88.6 °F 64.2 °F 46% 29.78 in 10.0 mi South 15.0 mph 21.9 mph N/A   Clear
5:55 PM 88.5 °F 90.1 °F 64.9 °F 45% 29.78 in 10.0 mi South 17.3 mph 24.2 mph N/A   Clear
6:15 PM 87.3 °F 88.9 °F 64.6 °F 47% 29.78 in 10.0 mi SSE 18.4 mph 24.2 mph N/A   Clear
6:35 PM 86.4 °F 87.8 °F 64.8 °F 48% 29.78 in 10.0 mi South 16.1 mph 23.0 mph N/A   Clear
6:55 PM 85.8 °F 87.6 °F 65.3 °F 50% 29.78 in 10.0 mi South 12.7 mph 18.4 mph N/A   Clear
7:15 PM 84.9 °F 86.8 °F 65.3 °F 52% 29.78 in 10.0 mi South 15.0 mph - N/A   Clear
7:35 PM 84.0 °F 86.0 °F 65.5 °F 54% 29.79 in 10.0 mi SSE 10.4 mph - N/A   Clear
7:55 PM 83.3 °F 85.3 °F 65.7 °F 55% 29.79 in 10.0 mi SSE 11.5 mph - N/A   Clear
8:15 PM 82.6 °F 84.7 °F 65.8 °F 57% 29.79 in 10.0 mi SSE 11.5 mph - N/A   Clear
8:35 PM 81.5 °F 83.4 °F 65.7 °F 58% 29.80 in 10.0 mi SSE 13.8 mph 17.3 mph N/A   Clear
8:55 PM 80.6 °F 82.5 °F 65.7 °F 60% 29.80 in 10.0 mi SSE 11.5 mph 18.4 mph N/A   Clear
9:15 PM 78.8 °F - 65.7 °F 64% 29.81 in 10.0 mi SE 9.2 mph - N/A   Clear
9:35 PM 78.1 °F - 65.8 °F 66% 29.81 in 10.0 mi SSE 10.4 mph - N/A   Clear
9:55 PM 77.2 °F - 65.7 °F 67% 29.83 in 10.0 mi SSE 8.1 mph - N/A   Clear
10:15 PM 76.6 °F - 65.7 °F 69% 29.83 in 10.0 mi SSE 10.4 mph - N/A   Clear
10:35 PM 76.1 °F - 65.5 °F 70% 29.84 in 10.0 mi SSE 9.2 mph - N/A   Clear
10:55 PM 75.7 °F - 65.3 °F 70% 29.84 in 10.0 mi SSE 10.4 mph - N/A   Clear
11:15 PM 75.2 °F - 64.8 °F 70% 29.84 in 10.0 mi SSE 10.4 mph - N/A   Clear
11:35 PM 74.7 °F - 64.4 °F 70% 29.85 in 10.0 mi South 9.2 mph - N/A   Clear
11:55 PM 74.3 °F - 63.9 °F 70% 29.85 in 10.0 mi South 8.1 mph - N/A   Clear